TimeEST,TemperatureF,Dew PointF,Humidity,Sea Level PressureIn,VisibilityMPH,Wind Direction,Wind SpeedMPH,Gust SpeedMPH,PrecipitationIn,Events,Conditions,WindDirDegrees,DateUTC
12:08 AM,51.8,50.0,94,29.89,6.0,SSW,8.1,-,N/A,,Overcast,210,2013-12-06 05:08:00
12:53 AM,51.1,45.0,80,29.91,10.0,WNW,5.8,-,N/A,,Overcast,300,2013-12-06 05:53:00
1:32 AM,50.0,42.8,76,29.90,10.0,WNW,9.2,-,N/A,,Overcast,300,2013-12-06 06:32:00
1:53 AM,50.0,39.9,68,29.91,10.0,West,3.5,-,N/A,,Overcast,260,2013-12-06 06:53:00
2:53 AM,46.0,42.1,86,29.94,3.0,Calm,Calm,-,0.02,Rain,Light Rain,0,2013-12-06 07:53:00
3:07 AM,44.6,42.8,93,29.93,3.0,WSW,3.5,-,0.02,Rain,Light Rain,250,2013-12-06 08:07:00
3:23 AM,44.6,41.0,87,29.96,2.5,Variable,4.6,-,0.07,Rain,Rain,0,2013-12-06 08:23:00
3:27 AM,44.6,39.2,81,29.96,3.0,North,3.5,-,0.08,Rain,Rain,360,2013-12-06 08:27:00
3:53 AM,42.1,39.0,89,29.98,4.0,Calm,Calm,-,0.12,Rain,Light Rain,0,2013-12-06 08:53:00
4:05 AM,42.8,39.2,87,29.98,4.0,North,3.5,-,0.02,Rain,Light Rain,350,2013-12-06 09:05:00
4:25 AM,41.0,39.2,93,29.98,3.0,Calm,Calm,-,0.07,Rain,Rain,0,2013-12-06 09:25:00
4:37 AM,41.0,39.2,93,29.99,4.0,Calm,Calm,-,0.09,Rain,Light Rain,0,2013-12-06 09:37:00
4:53 AM,41.0,39.9,96,30.01,3.0,Calm,Calm,-,0.12,Rain,Rain,0,2013-12-06 09:53:00
5:06 AM,39.2,39.2,100,29.97,3.0,Calm,Calm,-,0.04,Rain,Rain,0,2013-12-06 10:06:00
5:31 AM,39.2,39.2,100,30.00,3.0,Calm,Calm,-,0.07,Rain,Light Rain,0,2013-12-06 10:31:00
5:42 AM,41.0,39.2,93,29.98,4.0,Calm,Calm,-,0.07,Rain,Light Rain,0,2013-12-06 10:42:00
5:53 AM,39.9,39.0,97,30.00,4.0,SSW,3.5,-,0.08,Rain,Light Rain,200,2013-12-06 10:53:00
6:30 AM,39.2,39.2,100,29.98,2.5,Calm,Calm,-,0.07,Rain,Rain,0,2013-12-06 11:30:00
6:35 AM,39.2,39.2,100,29.99,3.0,Calm,Calm,-,0.09,Rain,Rain,0,2013-12-06 11:35:00
6:53 AM,39.9,39.0,97,30.04,4.0,WSW,5.8,-,0.11,Rain,Light Rain,250,2013-12-06 11:53:00
7:53 AM,39.0,37.9,96,30.05,4.0,Calm,Calm,-,0.03,,Overcast,0,2013-12-06 12:53:00
8:02 AM,39.2,39.2,100,30.04,3.0,Calm,Calm,-,N/A,,Overcast,0,2013-12-06 13:02:00
8:10 AM,39.2,37.4,93,30.04,1.8,Calm,Calm,-,N/A,,Overcast,0,2013-12-06 13:10:00
8:26 AM,39.2,39.2,100,30.03,2.5,Calm,Calm,-,N/A,,Overcast,0,2013-12-06 13:26:00
8:35 AM,39.2,39.2,100,30.03,4.0,Calm,Calm,-,N/A,,Overcast,0,2013-12-06 13:35:00
8:53 AM,39.9,39.0,97,30.06,6.0,Calm,Calm,-,N/A,,Overcast,0,2013-12-06 13:53:00
9:53 AM,41.0,37.9,89,30.07,10.0,West,4.6,-,N/A,,Overcast,280,2013-12-06 14:53:00
10:53 AM,41.0,34.0,76,30.06,10.0,Calm,Calm,-,N/A,,Overcast,0,2013-12-06 15:53:00
11:53 AM,41.0,34.0,76,30.07,10.0,SW,5.8,-,N/A,,Overcast,220,2013-12-06 16:53:00
12:53 PM,41.0,30.9,67,30.05,10.0,Variable,3.5,-,N/A,,Overcast,0,2013-12-06 17:53:00
1:53 PM,39.9,30.0,68,30.06,10.0,West,3.5,-,N/A,,Overcast,280,2013-12-06 18:53:00
2:53 PM,39.9,30.9,70,30.05,10.0,Calm,Calm,-,N/A,,Mostly Cloudy,0,2013-12-06 19:53:00
3:53 PM,39.9,32.0,73,30.08,10.0,Calm,Calm,-,N/A,,Mostly Cloudy,0,2013-12-06 20:53:00
4:53 PM,37.9,28.0,68,30.09,10.0,North,4.6,-,N/A,,Scattered Clouds,360,2013-12-06 21:53:00
5:53 PM,37.0,27.0,67,30.12,10.0,WNW,4.6,-,N/A,,Clear,300,2013-12-06 22:53:00
6:53 PM,35.1,30.0,82,30.13,10.0,Calm,Calm,-,N/A,,Overcast,0,2013-12-06 23:53:00
7:53 PM,37.0,26.1,65,30.13,10.0,NNW,5.8,-,N/A,,Overcast,340,2013-12-07 00:53:00
8:53 PM,36.0,26.1,67,30.17,10.0,NW,3.5,-,N/A,,Overcast,320,2013-12-07 01:53:00
9:53 PM,36.0,25.0,64,30.16,10.0,NNW,5.8,-,N/A,,Overcast,340,2013-12-07 02:53:00
10:50 PM,33.8,26.6,75,30.18,1.8,NW,6.9,-,0.00,Snow,Light Snow,310,2013-12-07 03:50:00
10:53 PM,33.1,28.0,82,30.20,1.5,NW,4.6,-,0.00,Snow,Light Snow,310,2013-12-07 03:53:00
11:14 PM,32.0,30.2,93,30.16,2.0,Calm,Calm,-,0.01,Snow,Light Snow,0,2013-12-07 04:14:00
11:26 PM,32.0,30.2,93,30.15,2.5,Calm,Calm,-,0.01,Snow,Light Snow,0,2013-12-07 04:26:00
11:35 PM,32.0,30.2,93,30.16,4.0,Calm,Calm,-,0.01,Snow,Light Snow,0,2013-12-07 04:35:00
11:53 PM,32.0,30.0,92,30.18,4.0,Calm,Calm,-,0.01,Snow,Light Snow,0,2013-12-07 04:53:00